Time,TemperatureF,DewpointF,PressureIn,WindDirection,WindDirectionDegrees,WindSpeedMPH,WindSpeedGustMPH,Humidity,HourlyPrecipIn,Conditions,Clouds,dailyrainin,SoftwareType,DateUTC
2013-01-04 00:00:00,26.3,21.1,30.01,West,280,0.0,0.0,80,0.00,,---,0.00,VWS V14.01,2013-01-04 05:00:00,
2013-01-04 00:01:00,26.3,20.9,30.01,West,280,0.0,0.0,80,0.00,,---,0.00,VWS V14.01,2013-01-04 05:01:00,
2013-01-04 00:07:00,26.5,21.1,30.01,West,263,0.0,3.3,80,0.00,,---,0.00,VWS V14.01,2013-01-04 05:07:00,
2013-01-04 00:08:00,26.5,21.3,30.01,West,263,0.0,0.0,80,0.00,,---,0.00,VWS V14.01,2013-01-04 05:08:00,
2013-01-04 00:10:00,26.5,20.9,30.01,West,263,0.0,0.0,79,0.00,,---,0.00,VWS V14.01,2013-01-04 05:10:00,
2013-01-04 00:15:00,26.5,21.0,30.01,WSW,252,0.0,8.5,80,0.00,,---,0.00,VWS V14.01,2013-01-04 05:15:00,
2013-01-04 00:20:00,26.5,21.2,30.00,WSW,252,0.0,0.0,80,0.00,,---,0.00,VWS V14.01,2013-01-04 05:20:00,
2013-01-04 00:25:00,26.8,22.0,30.00,NW,311,4.5,5.5,82,0.00,,---,0.00,VWS V14.01,2013-01-04 05:25:00,
2013-01-04 00:30:00,27.3,22.0,30.00,West,276,0.0,0.0,80,0.00,,---,0.00,VWS V14.01,2013-01-04 05:30:00,
2013-01-04 00:35:00,27.5,21.8,30.00,WNW,300,3.0,3.0,79,0.00,,---,0.00,VWS V14.01,2013-01-04 05:35:00,
2013-01-04 00:40:00,27.6,21.6,29.99,West,276,5.7,7.5,78,0.00,,---,0.00,VWS V14.01,2013-01-04 05:40:00,
2013-01-04 00:45:00,28.0,21.8,29.99,WNW,297,7.3,9.5,77,0.00,,---,0.00,VWS V14.01,2013-01-04 05:45:00,
2013-01-04 00:50:00,28.0,22.6,29.99,WSW,252,5.7,6.3,80,0.00,,---,0.00,VWS V14.01,2013-01-04 05:50:00,
2013-01-04 00:55:00,27.9,22.0,29.99,WSW,250,8.5,11.7,78,0.00,,---,0.00,VWS V14.01,2013-01-04 05:55:00,
2013-01-04 01:00:00,28.0,21.9,29.99,WNW,290,8.0,12.1,77,0.00,,---,0.00,VWS V14.01,2013-01-04 06:00:00,
2013-01-04 01:05:00,28.1,22.1,29.99,WNW,295,6.0,7.0,78,0.00,,---,0.00,VWS V14.01,2013-01-04 06:05:00,
2013-01-04 01:10:00,28.3,21.9,29.98,West,276,0.0,5.8,77,0.00,,---,0.00,VWS V14.01,2013-01-04 06:10:00,
2013-01-04 01:15:00,28.4,22.6,29.99,West,259,0.0,5.3,79,0.00,,---,0.00,VWS V14.01,2013-01-04 06:15:00,
2013-01-04 01:20:00,28.7,22.4,29.99,West,264,13.8,15.9,77,0.00,,---,0.00,VWS V14.01,2013-01-04 06:20:00,
2013-01-04 01:25:00,28.7,22.4,29.99,WNW,287,0.0,7.7,77,0.00,,---,0.00,VWS V14.01,2013-01-04 06:25:00,
2013-01-04 01:30:00,28.7,22.2,29.99,West,277,0.0,9.9,76,0.00,,---,0.00,VWS V14.01,2013-01-04 06:30:00,
2013-01-04 01:35:00,28.8,22.4,29.99,NW,319,2.4,10.9,77,0.00,,---,0.00,VWS V14.01,2013-01-04 06:35:00,
2013-01-04 01:40:00,29.2,22.8,29.99,WSW,256,0.0,6.8,77,0.00,,---,0.00,VWS V14.01,2013-01-04 06:40:00,
2013-01-04 01:45:00,29.1,22.5,30.00,WSW,255,0.0,10.4,76,0.00,,---,0.00,VWS V14.01,2013-01-04 06:45:00,
2013-01-04 01:50:00,29.3,22.7,30.00,WNW,291,5.9,9.3,76,0.00,,---,0.00,VWS V14.01,2013-01-04 06:50:00,
2013-01-04 01:55:00,29.4,22.6,30.00,WNW,300,4.5,9.2,75,0.00,,---,0.00,VWS V14.01,2013-01-04 06:55:00,
2013-01-04 02:00:00,29.5,22.9,30.00,West,281,0.0,5.0,76,0.00,,---,0.00,VWS V14.01,2013-01-04 07:00:00,
2013-01-04 02:05:00,29.6,22.9,30.00,West,269,0.0,0.0,76,0.00,,---,0.00,VWS V14.01,2013-01-04 07:05:00,
2013-01-04 02:10:00,29.8,23.1,30.00,WSW,253,0.0,3.5,76,0.00,,---,0.00,VWS V14.01,2013-01-04 07:10:00,
2013-01-04 02:16:00,29.8,22.9,30.00,SW,226,0.0,0.0,75,0.00,,---,0.00,VWS V14.01,2013-01-04 07:16:00,
2013-01-04 02:21:00,29.8,22.9,30.00,West,267,5.8,5.8,75,0.00,,---,0.00,VWS V14.01,2013-01-04 07:21:00,
2013-01-04 02:26:00,29.7,22.7,30.00,WSW,242,4.9,7.8,75,0.00,,---,0.00,VWS V14.01,2013-01-04 07:26:00,
2013-01-04 02:31:00,30.0,23.2,30.00,WNW,292,0.0,3.2,76,0.00,,---,0.00,VWS V14.01,2013-01-04 07:31:00,
2013-01-04 02:36:00,29.9,23.1,30.00,West,273,0.0,7.8,75,0.00,,---,0.00,VWS V14.01,2013-01-04 07:36:00,
2013-01-04 02:41:00,29.8,22.9,30.00,West,281,4.8,9.3,75,0.00,,---,0.00,VWS V14.01,2013-01-04 07:41:00,
2013-01-04 02:46:00,30.0,23.1,30.00,WNW,284,0.0,3.2,75,0.00,,---,0.00,VWS V14.01,2013-01-04 07:46:00,
2013-01-04 02:51:00,29.9,23.3,30.00,West,276,0.0,5.8,76,0.00,,---,0.00,VWS V14.01,2013-01-04 07:51:00,
2013-01-04 02:56:00,29.8,23.0,30.00,West,280,0.0,4.3,75,0.00,,---,0.00,VWS V14.01,2013-01-04 07:56:00,
2013-01-04 03:01:00,29.9,23.5,30.00,WSW,255,0.0,0.0,77,0.00,,---,0.00,VWS V14.01,2013-01-04 08:01:00,
2013-01-04 03:06:00,30.0,23.4,30.00,West,281,6.6,10.3,76,0.00,,---,0.00,VWS V14.01,2013-01-04 08:06:00,
2013-01-04 03:11:00,29.9,23.4,30.00,WSW,257,5.0,6.2,76,0.00,,---,0.00,VWS V14.01,2013-01-04 08:11:00,
2013-01-04 03:16:00,29.9,23.4,30.00,West,270,9.6,10.9,76,0.00,,---,0.00,VWS V14.01,2013-01-04 08:16:00,
2013-01-04 03:21:00,30.1,23.6,30.00,NW,323,5.5,5.7,76,0.00,,---,0.00,VWS V14.01,2013-01-04 08:21:00,
2013-01-04 03:26:00,30.1,23.9,30.00,West,274,0.0,8.2,77,0.00,,---,0.00,VWS V14.01,2013-01-04 08:26:00,
2013-01-04 03:31:00,30.1,24.1,30.00,NW,321,0.0,10.4,78,0.00,,---,0.00,VWS V14.01,2013-01-04 08:31:00,
2013-01-04 03:36:00,30.0,24.0,30.00,NW,319,0.0,5.1,78,0.00,,---,0.00,VWS V14.01,2013-01-04 08:36:00,
2013-01-04 03:41:00,30.0,24.0,30.00,West,267,5.2,8.5,78,0.00,,---,0.00,VWS V14.01,2013-01-04 08:41:00,
2013-01-04 03:46:00,30.0,24.2,30.00,West,267,0.0,6.3,79,0.00,,---,0.00,VWS V14.01,2013-01-04 08:46:00,
2013-01-04 03:51:00,29.9,24.2,30.00,West,274,6.2,8.1,79,0.00,,---,0.00,VWS V14.01,2013-01-04 08:51:00,
2013-01-04 03:56:00,30.1,24.6,30.00,WNW,284,6.6,9.7,80,0.00,,---,0.00,VWS V14.01,2013-01-04 08:56:00,
2013-01-04 04:01:00,30.0,24.4,30.00,WNW,292,0.0,3.4,79,0.00,,---,0.00,VWS V14.01,2013-01-04 09:01:00,
2013-01-04 04:06:00,30.1,24.5,30.00,WNW,301,4.9,11.4,79,0.00,,---,0.00,VWS V14.01,2013-01-04 09:06:00,
2013-01-04 04:11:00,29.9,24.4,30.00,WNW,298,5.7,16.4,80,0.00,,---,0.00,VWS V14.01,2013-01-04 09:11:00,
2013-01-04 04:16:00,30.2,24.7,30.00,WNW,287,5.8,12.9,80,0.00,,---,0.00,VWS V14.01,2013-01-04 09:16:00,
2013-01-04 04:21:00,30.2,24.7,30.00,WNW,302,0.0,12.9,80,0.00,,---,0.00,VWS V14.01,2013-01-04 09:21:00,
2013-01-04 04:26:00,30.2,24.9,30.00,West,264,6.6,8.8,80,0.00,,---,0.00,VWS V14.01,2013-01-04 09:26:00,
2013-01-04 04:31:00,30.1,24.7,30.00,WNW,283,7.6,10.9,80,0.00,,---,0.00,VWS V14.01,2013-01-04 09:31:00,
2013-01-04 04:36:00,30.2,24.9,30.00,West,277,6.3,12.5,80,0.00,,---,0.00,VWS V14.01,2013-01-04 09:36:00,
2013-01-04 04:41:00,30.2,24.9,30.00,West,277,9.4,10.0,80,0.00,,---,0.00,VWS V14.01,2013-01-04 09:41:00,
2013-01-04 04:46:00,30.2,24.9,30.00,WNW,284,0.0,5.5,80,0.00,,---,0.00,VWS V14.01,2013-01-04 09:46:00,
2013-01-04 04:51:00,30.4,25.2,30.00,West,271,0.0,7.1,81,0.00,,---,0.00,VWS V14.01,2013-01-04 09:51:00,
2013-01-04 04:56:00,30.4,25.0,30.00,WNW,288,0.0,0.0,80,0.00,,---,0.00,VWS V14.01,2013-01-04 09:56:00,
2013-01-04 05:01:00,30.2,24.8,30.00,SW,232,5.9,8.8,80,0.00,,---,0.00,VWS V14.01,2013-01-04 10:01:00,
2013-01-04 05:06:00,30.2,25.1,30.00,WSW,245,0.0,9.7,81,0.00,,---,0.00,VWS V14.01,2013-01-04 10:06:00,
2013-01-04 05:11:00,30.3,25.1,30.00,WNW,294,0.0,5.2,81,0.00,,---,0.00,VWS V14.01,2013-01-04 10:11:00,
2013-01-04 05:16:00,30.3,25.1,30.00,WNW,283,0.0,6.8,81,0.00,,---,0.00,VWS V14.01,2013-01-04 10:16:00,
2013-01-04 05:21:00,30.3,25.0,30.00,WNW,288,3.0,5.9,80,0.00,,---,0.00,VWS V14.01,2013-01-04 10:21:00,
2013-01-04 05:26:00,30.3,25.0,30.00,West,276,0.0,9.1,80,0.00,,---,0.00,VWS V14.01,2013-01-04 10:26:00,
2013-01-04 05:31:00,30.4,25.2,30.00,SW,221,6.8,6.8,81,0.00,,---,0.00,VWS V14.01,2013-01-04 10:31:00,
2013-01-04 05:36:00,30.5,25.2,30.00,WSW,252,0.0,0.0,80,0.00,,---,0.00,VWS V14.01,2013-01-04 10:36:00,
2013-01-04 05:41:00,30.3,25.2,30.00,WSW,242,0.0,0.0,81,0.00,,---,0.00,VWS V14.01,2013-01-04 10:41:00,
2013-01-04 05:46:00,30.4,25.2,30.00,West,273,0.0,5.7,81,0.00,,---,0.00,VWS V14.01,2013-01-04 10:46:00,
2013-01-04 05:51:00,30.5,25.4,30.00,WNW,290,0.0,4.6,81,0.00,,---,0.00,VWS V14.01,2013-01-04 10:51:00,
2013-01-04 05:56:00,30.4,25.3,30.00,WSW,255,0.0,0.0,81,0.00,,---,0.00,VWS V14.01,2013-01-04 10:56:00,
2013-01-04 06:01:00,30.2,25.3,30.00,West,269,0.0,0.0,82,0.00,,---,0.00,VWS V14.01,2013-01-04 11:01:00,
2013-01-04 06:06:00,30.2,25.4,30.00,West,269,7.4,9.1,82,0.00,,---,0.00,VWS V14.01,2013-01-04 11:06:00,
2013-01-04 06:11:00,30.3,25.6,30.00,West,264,5.2,6.8,82,0.00,,---,0.00,VWS V14.01,2013-01-04 11:11:00,
2013-01-04 06:16:00,30.5,25.7,30.00,NW,323,0.0,0.0,82,0.00,,---,0.00,VWS V14.01,2013-01-04 11:16:00,
2013-01-04 06:21:00,30.7,25.8,30.00,WSW,257,0.0,6.5,82,0.00,,---,0.00,VWS V14.01,2013-01-04 11:21:00,
2013-01-04 06:26:00,30.6,25.9,30.00,WNW,284,0.0,0.0,82,0.00,,---,0.00,VWS V14.01,2013-01-04 11:26:00,
2013-01-04 06:31:00,30.7,25.9,30.00,West,276,0.0,0.0,82,0.00,,---,0.00,VWS V14.01,2013-01-04 11:31:00,
2013-01-04 06:36:00,30.8,26.1,30.01,West,276,0.0,0.0,82,0.00,,---,0.00,VWS V14.01,2013-01-04 11:36:00,
2013-01-04 06:41:00,31.0,26.1,30.01,West,276,0.0,0.0,82,0.00,,---,0.00,VWS V14.01,2013-01-04 11:41:00,
2013-01-04 06:46:00,31.0,26.0,30.01,West,273,0.0,0.0,81,0.00,,---,0.00,VWS V14.01,2013-01-04 11:46:00,
2013-01-04 06:51:00,31.0,26.0,30.01,West,266,0.0,0.0,81,0.00,,---,0.00,VWS V14.01,2013-01-04 11:51:00,
2013-01-04 06:56:00,31.1,26.2,30.01,WSW,257,0.0,3.2,82,0.00,,---,0.00,VWS V14.01,2013-01-04 11:56:00,
2013-01-04 07:01:00,31.2,26.3,30.01,WSW,257,0.0,0.0,82,0.00,,---,0.00,VWS V14.01,2013-01-04 12:01:00,
2013-01-04 07:06:00,31.1,26.1,30.01,South,191,0.0,0.0,82,0.00,,---,0.00,VWS V14.01,2013-01-04 12:06:00,
2013-01-04 07:11:00,31.2,26.1,30.01,SW,224,0.0,5.2,81,0.00,,---,0.00,VWS V14.01,2013-01-04 12:11:00,
2013-01-04 07:16:00,31.3,26.3,30.01,SW,224,0.0,0.0,82,0.00,,---,0.00,VWS V14.01,2013-01-04 12:16:00,
2013-01-04 07:21:00,31.2,26.4,30.01,SW,224,0.0,0.0,82,0.00,,---,0.00,VWS V14.01,2013-01-04 12:21:00,
2013-01-04 07:26:00,31.3,26.3,30.01,SW,224,0.0,0.0,82,0.00,,---,0.00,VWS V14.01,2013-01-04 12:26:00,
2013-01-04 07:31:00,31.3,26.6,30.01,SW,224,0.0,0.0,82,0.00,,---,0.00,VWS V14.01,2013-01-04 12:31:00,
2013-01-04 07:36:00,31.4,26.6,30.02,SW,224,0.0,0.0,82,0.00,,---,0.00,VWS V14.01,2013-01-04 12:36:00,
2013-01-04 07:41:00,31.4,26.6,30.02,SW,224,0.0,0.0,82,0.00,,---,0.00,VWS V14.01,2013-01-04 12:41:00,
2013-01-04 07:46:00,31.5,26.7,30.02,SW,224,0.0,0.0,82,0.00,,---,0.00,VWS V14.01,2013-01-04 12:46:00,
2013-01-04 07:51:00,31.5,26.6,30.02,SW,224,0.0,0.0,82,0.00,,---,0.00,VWS V14.01,2013-01-04 12:51:00,
2013-01-04 07:56:00,31.6,26.9,30.02,SW,224,0.0,0.0,83,0.00,,---,0.00,VWS V14.01,2013-01-04 12:56:00,
2013-01-04 08:01:00,31.7,26.8,30.01,SW,224,0.0,0.0,82,0.00,,---,0.00,VWS V14.01,2013-01-04 13:01:00,
2013-01-04 08:06:00,31.8,26.6,30.02,SW,224,0.0,0.0,81,0.00,,---,0.00,VWS V14.01,2013-01-04 13:06:00,
2013-01-04 08:11:00,31.8,26.7,30.02,SW,224,0.0,0.0,81,0.00,,---,0.00,VWS V14.01,2013-01-04 13:11:00,
2013-01-04 08:16:00,31.9,26.8,30.02,SW,224,0.0,0.0,81,0.00,,---,0.00,VWS V14.01,2013-01-04 13:16:00,
2013-01-04 08:21:00,31.9,27.0,30.02,SW,224,0.0,0.0,82,0.00,,---,0.00,VWS V14.01,2013-01-04 13:21:00,
2013-01-04 08:26:00,32.0,27.0,30.02,SW,224,0.0,0.0,81,0.00,,---,0.00,VWS V14.01,2013-01-04 13:26:00,
2013-01-04 08:31:00,31.9,26.7,30.02,West,259,0.0,0.0,81,0.00,,---,0.00,VWS V14.01,2013-01-04 13:31:00,
2013-01-04 08:36:00,32.0,26.9,30.02,West,259,0.0,0.0,81,0.00,,---,0.00,VWS V14.01,2013-01-04 13:36:00,
2013-01-04 08:41:00,32.0,26.9,30.02,West,259,0.0,0.0,81,0.00,,---,0.00,VWS V14.01,2013-01-04 13:41:00,
2013-01-04 08:46:00,32.2,26.8,30.02,WSW,238,0.0,0.0,80,0.00,,---,0.00,VWS V14.01,2013-01-04 13:46:00,
2013-01-04 08:51:00,32.4,27.0,30.02,WSW,239,0.0,0.0,80,0.00,,---,0.00,VWS V14.01,2013-01-04 13:51:00,
2013-01-04 08:56:00,32.5,26.8,30.02,SW,222,0.0,0.0,79,0.00,,---,0.00,VWS V14.01,2013-01-04 13:56:00,
2013-01-04 09:01:00,32.6,26.8,30.02,West,274,0.0,5.7,79,0.00,,---,0.00,VWS V14.01,2013-01-04 14:01:00,
2013-01-04 09:06:00,32.6,26.7,30.02,West,263,0.0,4.7,79,0.00,,---,0.00,VWS V14.01,2013-01-04 14:06:00,
2013-01-04 09:11:00,32.6,26.7,30.01,West,263,0.0,0.0,79,0.00,,---,0.00,VWS V14.01,2013-01-04 14:11:00,
2013-01-04 09:16:00,33.0,27.4,30.01,West,263,0.0,0.0,80,0.00,,---,0.00,VWS V14.01,2013-01-04 14:16:00,
2013-01-04 09:21:00,33.0,26.6,30.01,NW,319,5.8,7.6,77,0.00,,---,0.00,VWS V14.01,2013-01-04 14:21:00,
2013-01-04 09:26:00,33.0,26.8,30.01,WSW,246,0.0,9.2,78,0.00,,---,0.00,VWS V14.01,2013-01-04 14:26:00,
2013-01-04 09:31:00,33.2,26.9,30.01,SW,222,0.0,7.0,77,0.00,,---,0.00,VWS V14.01,2013-01-04 14:31:00,
2013-01-04 09:36:00,33.4,27.1,30.01,WNW,285,0.0,0.0,77,0.00,,---,0.00,VWS V14.01,2013-01-04 14:36:00,
2013-01-04 09:41:00,33.4,27.0,30.01,West,278,0.0,0.0,77,0.00,,---,0.00,VWS V14.01,2013-01-04 14:41:00,
2013-01-04 09:46:00,33.6,26.9,30.01,WSW,255,0.0,0.0,76,0.00,,---,0.00,VWS V14.01,2013-01-04 14:46:00,
2013-01-04 09:51:00,33.8,27.0,30.01,West,266,5.7,9.3,76,0.00,,---,0.00,VWS V14.01,2013-01-04 14:51:00,
2013-01-04 09:56:00,33.9,26.7,30.01,WNW,295,0.0,8.7,75,0.00,,---,0.00,VWS V14.01,2013-01-04 14:56:00,
2013-01-04 10:01:00,34.2,26.9,30.01,SW,219,0.0,0.0,74,0.00,,---,0.00,VWS V14.01,2013-01-04 15:01:00,
2013-01-04 10:06:00,34.2,26.6,30.01,West,263,0.0,0.0,74,0.00,,---,0.00,VWS V14.01,2013-01-04 15:06:00,
2013-01-04 10:11:00,34.3,26.7,30.01,WNW,283,0.0,4.3,73,0.00,,---,0.00,VWS V14.01,2013-01-04 15:11:00,
2013-01-04 10:16:00,34.3,26.7,30.01,WSW,242,0.0,0.0,74,0.00,,---,0.00,VWS V14.01,2013-01-04 15:16:00,
2013-01-04 10:21:00,34.4,26.6,30.01,SW,235,0.0,4.9,73,0.00,,---,0.00,VWS V14.01,2013-01-04 15:21:00,
2013-01-04 10:26:00,34.6,27.2,30.00,SW,235,0.0,0.0,74,0.00,,---,0.00,VWS V14.01,2013-01-04 15:26:00,
2013-01-04 10:31:00,34.5,26.4,30.00,SW,232,4.9,6.8,72,0.00,,---,0.00,VWS V14.01,2013-01-04 15:31:00,
2013-01-04 10:36:00,34.5,26.4,30.00,WSW,249,0.0,7.6,72,0.00,,---,0.00,VWS V14.01,2013-01-04 15:36:00,
2013-01-04 10:41:00,34.5,26.2,30.00,WNW,292,0.0,8.9,71,0.00,,---,0.00,VWS V14.01,2013-01-04 15:41:00,
2013-01-04 10:46:00,34.7,26.4,30.00,West,280,6.3,12.8,71,0.00,,---,0.00,VWS V14.01,2013-01-04 15:46:00,
2013-01-04 10:51:00,34.6,26.6,29.99,SW,232,0.0,8.7,72,0.00,,---,0.00,VWS V14.01,2013-01-04 15:51:00,
2013-01-04 10:56:00,34.7,26.8,29.99,SW,235,0.0,0.0,73,0.00,,---,0.00,VWS V14.01,2013-01-04 15:56:00,
2013-01-04 11:01:00,34.6,26.3,29.99,West,269,11.3,11.3,71,0.00,,---,0.00,VWS V14.01,2013-01-04 16:01:00,
2013-01-04 11:06:00,34.7,26.3,29.98,SW,226,3.5,7.6,71,0.00,,---,0.00,VWS V14.01,2013-01-04 16:06:00,
2013-01-04 11:11:00,34.9,26.3,29.98,WSW,255,5.6,11.9,71,0.00,,---,0.00,VWS V14.01,2013-01-04 16:11:00,
2013-01-04 11:16:00,34.9,26.2,29.98,West,267,9.6,12.5,70,0.00,,---,0.00,VWS V14.01,2013-01-04 16:16:00,
2013-01-04 11:21:00,35.0,26.2,29.97,SW,233,0.0,8.7,70,0.00,,---,0.00,VWS V14.01,2013-01-04 16:21:00,
2013-01-04 11:26:00,34.9,26.4,29.97,WSW,255,3.1,6.3,71,0.00,,---,0.00,VWS V14.01,2013-01-04 16:26:00,
2013-01-04 11:31:00,35.1,26.1,29.97,WNW,302,4.3,9.7,69,0.00,,---,0.00,VWS V14.01,2013-01-04 16:31:00,
2013-01-04 11:36:00,35.3,26.6,29.97,WNW,290,0.0,2.8,70,0.00,,---,0.00,VWS V14.01,2013-01-04 16:36:00,
2013-01-04 11:41:00,35.2,26.0,29.96,NW,312,4.7,6.2,69,0.00,,---,0.00,VWS V14.01,2013-01-04 16:41:00,
2013-01-04 11:46:00,35.1,26.3,29.96,WSW,248,0.0,4.5,70,0.00,,---,0.00,VWS V14.01,2013-01-04 16:46:00,
2013-01-04 11:51:00,35.5,26.5,29.96,WSW,246,0.0,0.0,69,0.00,,---,0.00,VWS V14.01,2013-01-04 16:51:00,
2013-01-04 11:56:00,36.1,26.4,29.95,WSW,246,5.0,5.0,67,0.00,,---,0.00,VWS V14.01,2013-01-04 16:56:00,
2013-01-04 12:01:00,36.1,26.2,29.95,WSW,252,0.0,5.5,67,0.00,,---,0.00,VWS V14.01,2013-01-04 17:01:00,
2013-01-04 12:06:00,36.0,26.2,29.95,WNW,292,6.2,7.2,67,0.00,,---,0.00,VWS V14.01,2013-01-04 17:06:00,
2013-01-04 12:11:00,35.9,26.0,29.95,West,260,5.2,13.1,67,0.00,,---,0.00,VWS V14.01,2013-01-04 17:11:00,
2013-01-04 12:16:00,35.7,26.0,29.94,SW,231,7.8,11.9,67,0.00,,---,0.00,VWS V14.01,2013-01-04 17:16:00,
2013-01-04 12:21:00,35.8,26.1,29.94,WSW,255,0.0,12.6,67,0.00,,---,0.00,VWS V14.01,2013-01-04 17:21:00,
2013-01-04 12:26:00,35.7,26.2,29.93,WSW,253,0.0,0.0,68,0.00,,---,0.00,VWS V14.01,2013-01-04 17:26:00,
2013-01-04 12:31:00,35.9,26.4,29.93,West,280,7.5,11.7,68,0.00,,---,0.00,VWS V14.01,2013-01-04 17:31:00,
2013-01-04 12:36:00,35.8,26.3,29.92,WNW,300,3.5,11.1,68,0.00,,---,0.00,VWS V14.01,2013-01-04 17:36:00,
2013-01-04 12:41:00,36.0,26.0,29.92,SW,214,0.0,7.6,67,0.00,,---,0.00,VWS V14.01,2013-01-04 17:41:00,
2013-01-04 12:46:00,36.5,26.1,29.92,WNW,283,4.2,9.9,66,0.00,,---,0.00,VWS V14.01,2013-01-04 17:46:00,
2013-01-04 12:51:00,36.7,26.4,29.92,WNW,287,0.0,11.6,66,0.00,,---,0.00,VWS V14.01,2013-01-04 17:51:00,
2013-01-04 12:56:00,36.4,26.0,29.92,WSW,238,3.5,7.9,66,0.00,,---,0.00,VWS V14.01,2013-01-04 17:56:00,
2013-01-04 13:01:00,36.7,26.1,29.92,West,281,5.1,8.0,65,0.00,,---,0.00,VWS V14.01,2013-01-04 18:01:00,
2013-01-04 13:06:00,37.0,26.5,29.92,WNW,284,6.4,6.4,65,0.00,,---,0.00,VWS V14.01,2013-01-04 18:06:00,
2013-01-04 13:11:00,36.8,25.5,29.91,WSW,249,0.0,10.9,63,0.00,,---,0.00,VWS V14.01,2013-01-04 18:11:00,
2013-01-04 13:16:00,36.6,25.6,29.91,West,266,6.3,11.1,64,0.00,,---,0.00,VWS V14.01,2013-01-04 18:16:00,
2013-01-04 13:21:00,36.8,25.9,29.91,WNW,285,8.4,9.8,64,0.00,,---,0.00,VWS V14.01,2013-01-04 18:21:00,
2013-01-04 13:26:00,36.7,24.8,29.91,WNW,294,5.8,18.3,62,0.00,,---,0.00,VWS V14.01,2013-01-04 18:26:00,
2013-01-04 13:31:00,36.2,24.9,29.91,WSW,250,6.0,20.3,63,0.00,,---,0.00,VWS V14.01,2013-01-04 18:31:00,
2013-01-04 13:36:00,36.5,25.9,29.90,West,273,6.8,8.0,65,0.00,,---,0.00,VWS V14.01,2013-01-04 18:36:00,
2013-01-04 13:41:00,36.6,25.1,29.90,West,281,11.4,12.8,63,0.00,,---,0.00,VWS V14.01,2013-01-04 18:41:00,
2013-01-04 13:46:00,37.0,25.1,29.90,South,181,0.0,11.3,62,0.00,,---,0.00,VWS V14.01,2013-01-04 18:46:00,
2013-01-04 13:51:00,37.3,25.3,29.90,West,273,3.5,5.2,62,0.00,,---,0.00,VWS V14.01,2013-01-04 18:51:00,
2013-01-04 13:56:00,37.4,24.6,29.90,West,277,8.0,15.5,60,0.00,,---,0.00,VWS V14.01,2013-01-04 18:56:00,
2013-01-04 14:01:00,37.0,24.6,29.89,West,274,5.8,12.1,60,0.00,,---,0.00,VWS V14.01,2013-01-04 19:01:00,
2013-01-04 14:06:00,37.1,25.0,29.90,NW,304,0.0,6.3,61,0.00,,---,0.00,VWS V14.01,2013-01-04 19:06:00,
2013-01-04 14:11:00,37.1,24.5,29.90,WNW,283,8.9,10.5,60,0.00,,---,0.00,VWS V14.01,2013-01-04 19:11:00,
2013-01-04 14:16:00,37.0,24.6,29.90,West,271,7.1,14.5,60,0.00,,---,0.00,VWS V14.01,2013-01-04 19:16:00,
2013-01-04 14:21:00,37.1,25.1,29.90,WNW,300,0.0,7.1,61,0.00,,---,0.00,VWS V14.01,2013-01-04 19:21:00,
2013-01-04 14:26:00,37.0,24.5,29.90,WNW,285,8.1,14.8,60,0.00,,---,0.00,VWS V14.01,2013-01-04 19:26:00,
2013-01-04 14:31:00,37.0,24.5,29.90,West,273,2.8,14.6,60,0.00,,---,0.00,VWS V14.01,2013-01-04 19:31:00,
2013-01-04 14:36:00,37.1,24.6,29.90,NW,307,8.1,8.5,60,0.00,,---,0.00,VWS V14.01,2013-01-04 19:36:00,
2013-01-04 14:41:00,37.0,24.3,29.90,WNW,285,0.0,10.5,60,0.00,,---,0.00,VWS V14.01,2013-01-04 19:41:00,
2013-01-04 14:46:00,37.0,24.4,29.89,WNW,290,5.0,10.6,60,0.00,,---,0.00,VWS V14.01,2013-01-04 19:46:00,
2013-01-04 14:51:00,36.8,24.2,29.90,WNW,283,0.0,12.0,60,0.00,,---,0.00,VWS V14.01,2013-01-04 19:51:00,
2013-01-04 14:56:00,36.8,23.9,29.90,West,266,7.3,16.5,59,0.00,,---,0.00,VWS V14.01,2013-01-04 19:56:00,
2013-01-04 15:01:00,36.8,25.1,29.90,West,274,6.1,9.8,62,0.00,,---,0.00,VWS V14.01,2013-01-04 20:01:00,
2013-01-04 15:06:00,37.0,25.1,29.90,West,281,0.0,5.5,62,0.00,,---,0.00,VWS V14.01,2013-01-04 20:06:00,
2013-01-04 15:11:00,37.0,25.1,29.90,WSW,253,0.0,0.0,62,0.00,,---,0.00,VWS V14.01,2013-01-04 20:11:00,
2013-01-04 15:16:00,37.1,25.3,29.90,West,259,5.2,5.2,62,0.00,,---,0.00,VWS V14.01,2013-01-04 20:16:00,
2013-01-04 15:21:00,36.9,24.8,29.89,SW,226,5.7,6.9,61,0.00,,---,0.00,VWS V14.01,2013-01-04 20:21:00,
2013-01-04 15:26:00,36.7,25.3,29.89,WNW,295,0.0,0.0,63,0.00,,---,0.00,VWS V14.01,2013-01-04 20:26:00,
2013-01-04 15:31:00,36.7,25.3,29.90,WNW,295,0.0,0.0,63,0.00,,---,0.00,VWS V14.01,2013-01-04 20:31:00,
2013-01-04 15:36:00,36.6,25.3,29.90,West,271,0.0,0.0,63,0.00,,---,0.00,VWS V14.01,2013-01-04 20:36:00,
2013-01-04 15:41:00,36.5,25.1,29.90,WSW,250,0.0,6.0,63,0.00,,---,0.00,VWS V14.01,2013-01-04 20:41:00,
2013-01-04 15:46:00,36.4,25.5,29.90,WSW,250,0.0,0.0,64,0.00,,---,0.00,VWS V14.01,2013-01-04 20:46:00,
2013-01-04 15:51:00,36.3,25.0,29.90,WSW,250,0.0,0.0,63,0.00,,---,0.00,VWS V14.01,2013-01-04 20:51:00,
2013-01-04 15:56:00,36.0,24.8,29.90,West,260,6.5,8.8,63,0.00,,---,0.00,VWS V14.01,2013-01-04 20:56:00,
2013-01-04 16:01:00,35.9,25.1,29.90,West,259,0.0,0.0,65,0.00,,---,0.00,VWS V14.01,2013-01-04 21:01:00,
2013-01-04 16:06:00,35.9,25.0,29.89,West,262,0.0,0.0,64,0.00,,---,0.00,VWS V14.01,2013-01-04 21:06:00,
2013-01-04 16:11:00,35.7,24.9,29.89,West,271,0.0,0.0,64,0.00,,---,0.00,VWS V14.01,2013-01-04 21:11:00,
2013-01-04 16:16:00,35.6,24.7,29.89,West,271,0.0,0.0,64,0.00,,---,0.00,VWS V14.01,2013-01-04 21:16:00,
2013-01-04 16:21:00,35.5,24.7,29.89,West,277,4.2,10.6,64,0.00,,---,0.00,VWS V14.01,2013-01-04 21:21:00,
2013-01-04 16:26:00,35.4,24.8,29.90,WSW,249,0.0,0.0,65,0.00,,---,0.00,VWS V14.01,2013-01-04 21:26:00,
2013-01-04 16:31:00,35.3,24.6,29.89,WSW,250,0.0,0.0,65,0.00,,---,0.00,VWS V14.01,2013-01-04 21:31:00,
2013-01-04 16:36:00,35.1,24.6,29.89,WNW,292,0.0,0.0,65,0.00,,---,0.00,VWS V14.01,2013-01-04 21:36:00,
2013-01-04 16:41:00,35.1,24.8,29.89,West,276,0.0,0.0,66,0.00,,---,0.00,VWS V14.01,2013-01-04 21:41:00,
2013-01-04 16:46:00,35.1,24.8,29.90,WSW,240,0.0,0.0,66,0.00,,---,0.00,VWS V14.01,2013-01-04 21:46:00,
2013-01-04 16:51:00,34.9,24.7,29.90,WSW,240,0.0,0.0,66,0.00,,---,0.00,VWS V14.01,2013-01-04 21:51:00,
2013-01-04 16:56:00,34.8,24.5,29.89,West,267,0.0,0.0,66,0.00,,---,0.00,VWS V14.01,2013-01-04 21:56:00,
2013-01-04 17:01:00,34.7,24.6,29.89,West,267,0.0,0.0,66,0.00,,---,0.00,VWS V14.01,2013-01-04 22:01:00,
2013-01-04 17:06:00,34.4,24.5,29.90,WNW,291,0.0,4.7,67,0.00,,---,0.00,VWS V14.01,2013-01-04 22:06:00,
2013-01-04 17:11:00,34.3,24.8,29.90,WSW,238,0.0,9.9,68,0.00,,---,0.00,VWS V14.01,2013-01-04 22:11:00,
2013-01-04 17:16:00,34.2,24.3,29.90,West,271,4.8,11.3,67,0.00,,---,0.00,VWS V14.01,2013-01-04 22:16:00,
2013-01-04 17:21:00,34.1,24.2,29.90,NNW,347,0.0,0.0,67,0.00,,---,0.00,VWS V14.01,2013-01-04 22:21:00,
2013-01-04 17:26:00,33.9,24.3,29.90,NW,316,0.0,5.4,68,0.00,,---,0.00,VWS V14.01,2013-01-04 22:26:00,
2013-01-04 17:31:00,33.8,24.6,29.90,NW,316,0.0,0.0,69,0.00,,---,0.00,VWS V14.01,2013-01-04 22:31:00,
2013-01-04 17:36:00,33.8,24.5,29.91,NW,316,0.0,0.0,68,0.00,,---,0.00,VWS V14.01,2013-01-04 22:36:00,
2013-01-04 17:41:00,33.7,24.5,29.91,WNW,288,0.0,0.0,69,0.00,,---,0.00,VWS V14.01,2013-01-04 22:41:00,
2013-01-04 17:46:00,33.6,24.1,29.91,West,274,0.0,0.0,68,0.00,,---,0.00,VWS V14.01,2013-01-04 22:46:00,
2013-01-04 17:51:00,33.5,24.4,29.91,WNW,295,0.0,0.0,69,0.00,,---,0.00,VWS V14.01,2013-01-04 22:51:00,
2013-01-04 17:56:00,33.4,24.1,29.91,WNW,295,0.0,0.0,68,0.00,,---,0.00,VWS V14.01,2013-01-04 22:56:00,
2013-01-04 18:01:00,33.4,24.0,29.91,WNW,295,0.0,0.0,68,0.00,,---,0.00,VWS V14.01,2013-01-04 23:01:00,
2013-01-04 18:06:00,33.3,24.2,29.91,WSW,256,0.0,6.8,69,0.00,,---,0.00,VWS V14.01,2013-01-04 23:06:00,
2013-01-04 18:11:00,33.3,24.5,29.91,WSW,256,0.0,0.0,70,0.00,,---,0.00,VWS V14.01,2013-01-04 23:11:00,
2013-01-04 18:16:00,33.2,24.0,29.91,WSW,246,0.0,0.0,68,0.00,,---,0.00,VWS V14.01,2013-01-04 23:16:00,
2013-01-04 18:21:00,33.2,24.0,29.91,West,274,0.0,0.0,69,0.00,,---,0.00,VWS V14.01,2013-01-04 23:21:00,
2013-01-04 18:26:00,33.1,23.9,29.91,West,274,0.0,0.0,68,0.00,,---,0.00,VWS V14.01,2013-01-04 23:26:00,
2013-01-04 18:31:00,33.2,24.1,29.92,WSW,252,0.0,3.5,69,0.00,,---,0.00,VWS V14.01,2013-01-04 23:31:00,
2013-01-04 18:36:00,33.2,24.1,29.92,West,277,3.2,4.6,69,0.00,,---,0.00,VWS V14.01,2013-01-04 23:36:00,
2013-01-04 18:41:00,33.3,24.0,29.91,West,277,0.0,0.0,68,0.00,,---,0.00,VWS V14.01,2013-01-04 23:41:00,
2013-01-04 18:46:00,33.1,23.8,29.91,West,262,3.5,7.0,68,0.00,,---,0.00,VWS V14.01,2013-01-04 23:46:00,
2013-01-04 18:52:00,33.1,24.0,29.92,WSW,240,0.0,0.0,69,0.00,,---,0.00,VWS V14.01,2013-01-04 23:52:00,
2013-01-04 18:57:00,33.1,24.0,29.92,WNW,298,0.0,0.0,69,0.00,,---,0.00,VWS V14.01,2013-01-04 23:57:00,
2013-01-04 19:02:00,33.0,23.9,29.92,West,277,0.0,0.0,69,0.00,,---,0.00,VWS V14.01,2013-01-05 00:02:00,
2013-01-04 19:07:00,33.1,23.7,29.92,WNW,288,0.0,0.0,68,0.00,,---,0.00,VWS V14.01,2013-01-05 00:07:00,
2013-01-04 19:12:00,33.1,23.7,29.92,West,274,0.0,0.0,68,0.00,,---,0.00,VWS V14.01,2013-01-05 00:12:00,
2013-01-04 19:17:00,33.0,23.9,29.92,WSW,246,0.0,0.0,69,0.00,,---,0.00,VWS V14.01,2013-01-05 00:17:00,
2013-01-04 19:22:00,33.0,23.6,29.92,West,269,0.0,7.2,68,0.00,,---,0.00,VWS V14.01,2013-01-05 00:22:00,
2013-01-04 19:27:00,33.0,23.8,29.92,West,259,0.0,0.0,68,0.00,,---,0.00,VWS V14.01,2013-01-05 00:27:00,
2013-01-04 19:32:00,33.0,23.7,29.92,West,270,0.0,6.9,68,0.00,,---,0.00,VWS V14.01,2013-01-05 00:32:00,
2013-01-04 19:37:00,32.9,23.5,29.92,West,274,0.0,6.2,68,0.00,,---,0.00,VWS V14.01,2013-01-05 00:37:00,
2013-01-04 19:42:00,32.8,23.4,29.92,WSW,255,0.0,1.5,68,0.00,,---,0.00,VWS V14.01,2013-01-05 00:42:00,
2013-01-04 19:47:00,32.9,23.4,29.92,West,269,0.0,0.0,68,0.00,,---,0.00,VWS V14.01,2013-01-05 00:47:00,
2013-01-04 19:52:00,32.8,23.5,29.92,West,280,0.0,0.0,68,0.00,,---,0.00,VWS V14.01,2013-01-05 00:52:00,
2013-01-04 19:57:00,32.8,23.6,29.92,WNW,295,0.0,0.0,69,0.00,,---,0.00,VWS V14.01,2013-01-05 00:57:00,
2013-01-04 20:02:00,32.7,23.5,29.92,WNW,295,0.0,7.3,69,0.00,,---,0.00,VWS V14.01,2013-01-05 01:02:00,
2013-01-04 20:07:00,32.7,23.6,29.92,WNW,294,0.0,0.0,69,0.00,,---,0.00,VWS V14.01,2013-01-05 01:07:00,
2013-01-04 20:12:00,32.6,23.4,29.92,WNW,292,8.1,10.5,68,0.00,,---,0.00,VWS V14.01,2013-01-05 01:12:00,
2013-01-04 20:17:00,32.5,23.5,29.92,West,270,0.0,7.0,69,0.00,,---,0.00,VWS V14.01,2013-01-05 01:17:00,
2013-01-04 20:22:00,32.5,23.5,29.92,West,276,7.0,8.5,69,0.00,,---,0.00,VWS V14.01,2013-01-05 01:22:00,
2013-01-04 20:27:00,32.5,23.9,29.92,West,270,0.0,0.0,70,0.00,,---,0.00,VWS V14.01,2013-01-05 01:27:00,
2013-01-04 20:33:00,32.4,23.5,29.92,WSW,253,2.7,4.1,69,0.00,,---,0.00,VWS V14.01,2013-01-05 01:33:00,
2013-01-04 20:38:00,32.3,23.3,29.92,West,262,0.0,0.0,69,0.00,,---,0.00,VWS V14.01,2013-01-05 01:38:00,
2013-01-04 20:43:00,32.2,23.3,29.92,West,277,3.1,5.9,69,0.00,,---,0.00,VWS V14.01,2013-01-05 01:43:00,
2013-01-04 20:48:00,32.3,23.6,29.92,West,266,0.0,7.0,70,0.00,,---,0.00,VWS V14.01,2013-01-05 01:48:00,
2013-01-04 20:53:00,32.4,23.1,29.92,NW,305,7.2,12.8,68,0.00,,---,0.00,VWS V14.01,2013-01-05 01:53:00,
2013-01-04 20:58:00,32.4,23.5,29.92,WNW,285,4.7,7.6,69,0.00,,---,0.00,VWS V14.01,2013-01-05 01:58:00,
2013-01-04 21:03:00,32.2,23.2,29.92,West,281,0.0,0.0,69,0.00,,---,0.00,VWS V14.01,2013-01-05 02:03:00,
2013-01-04 21:08:00,32.0,23.4,29.92,West,266,5.2,5.2,70,0.00,,---,0.00,VWS V14.01,2013-01-05 02:08:00,
2013-01-04 21:13:00,32.1,23.4,29.92,WNW,291,0.0,0.0,70,0.00,,---,0.00,VWS V14.01,2013-01-05 02:13:00,
2013-01-04 21:18:00,31.9,23.0,29.92,NW,318,5.5,13.5,69,0.00,,---,0.00,VWS V14.01,2013-01-05 02:18:00,
2013-01-04 21:23:00,32.0,23.3,29.92,NW,314,10.5,12.6,70,0.00,,---,0.00,VWS V14.01,2013-01-05 02:23:00,
2013-01-04 21:28:00,32.1,23.2,29.92,NW,314,0.0,3.5,69,0.00,,---,0.00,VWS V14.01,2013-01-05 02:28:00,
2013-01-04 21:33:00,32.1,22.9,29.92,WNW,288,8.3,8.3,68,0.00,,---,0.00,VWS V14.01,2013-01-05 02:33:00,
2013-01-04 21:38:00,31.9,22.9,29.92,NW,307,0.0,0.0,69,0.00,,---,0.00,VWS V14.01,2013-01-05 02:38:00,
2013-01-04 21:43:00,31.7,22.9,29.92,WNW,284,5.7,9.3,69,0.00,,---,0.00,VWS V14.01,2013-01-05 02:43:00,
2013-01-04 21:48:00,31.7,22.9,29.92,NW,309,0.0,13.0,69,0.00,,---,0.00,VWS V14.01,2013-01-05 02:48:00,
2013-01-04 21:53:00,31.9,23.0,29.93,WNW,301,3.4,5.4,69,0.00,,---,0.00,VWS V14.01,2013-01-05 02:53:00,
2013-01-04 21:58:00,31.8,22.8,29.93,WNW,302,5.8,11.5,69,0.00,,---,0.00,VWS V14.01,2013-01-05 02:58:00,
2013-01-04 22:03:00,31.8,22.9,29.92,WNW,288,0.0,0.0,69,0.00,,---,0.00,VWS V14.01,2013-01-05 03:03:00,
2013-01-04 22:08:00,31.6,22.9,29.92,North,353,6.4,10.0,70,0.00,,---,0.00,VWS V14.01,2013-01-05 03:08:00,
2013-01-04 22:13:00,31.5,23.0,29.92,WNW,301,0.0,9.7,70,0.00,,---,0.00,VWS V14.01,2013-01-05 03:13:00,
2013-01-04 22:18:00,31.7,23.0,29.93,NNW,335,0.0,0.0,70,0.00,,---,0.00,VWS V14.01,2013-01-05 03:18:00,
2013-01-04 22:23:00,31.4,22.6,29.93,North,359,5.7,9.3,70,0.00,,---,0.00,VWS V14.01,2013-01-05 03:23:00,
2013-01-04 22:28:00,31.5,22.9,29.93,NW,321,0.0,0.0,70,0.00,,---,0.00,VWS V14.01,2013-01-05 03:28:00,
2013-01-04 22:33:00,31.5,22.8,29.93,NW,305,3.0,5.5,70,0.00,,---,0.00,VWS V14.01,2013-01-05 03:33:00,
2013-01-04 22:38:00,31.5,23.0,29.93,WNW,284,4.7,6.0,70,0.00,,---,0.00,VWS V14.01,2013-01-05 03:38:00,
2013-01-04 22:43:00,31.4,22.6,29.93,WNW,285,0.0,5.5,70,0.00,,---,0.00,VWS V14.01,2013-01-05 03:43:00,
2013-01-04 22:48:00,31.4,22.8,29.94,NNW,338,6.5,7.3,70,0.00,,---,0.00,VWS V14.01,2013-01-05 03:48:00,
2013-01-04 22:53:00,31.4,23.0,29.94,West,274,0.0,6.1,71,0.00,,---,0.00,VWS V14.01,2013-01-05 03:53:00,
2013-01-04 22:59:00,31.2,22.8,29.94,WNW,301,9.4,12.1,71,0.00,,---,0.00,VWS V14.01,2013-01-05 03:59:00,
2013-01-04 23:04:00,31.3,23.0,29.94,NNW,343,0.0,5.8,71,0.00,,---,0.00,VWS V14.01,2013-01-05 04:04:00,
2013-01-04 23:09:00,31.3,22.6,29.94,NW,309,6.1,6.1,70,0.00,,---,0.00,VWS V14.01,2013-01-05 04:09:00,
2013-01-04 23:14:00,31.2,22.5,29.94,WNW,297,0.0,9.1,70,0.00,,---,0.00,VWS V14.01,2013-01-05 04:14:00,
2013-01-04 23:19:00,31.2,22.4,29.94,West,280,5.2,10.1,70,0.00,,---,0.00,VWS V14.01,2013-01-05 04:19:00,
2013-01-04 23:24:00,31.2,22.5,29.94,NNW,333,3.5,6.1,70,0.00,,---,0.00,VWS V14.01,2013-01-05 04:24:00,
2013-01-04 23:29:00,31.1,22.4,29.94,NW,321,0.0,8.3,70,0.00,,---,0.00,VWS V14.01,2013-01-05 04:29:00,
2013-01-04 23:34:00,31.1,22.6,29.94,WNW,292,8.9,11.7,70,0.00,,---,0.00,VWS V14.01,2013-01-05 04:34:00,
2013-01-04 23:39:00,31.1,22.3,29.94,NW,308,5.8,8.5,69,0.00,,---,0.00,VWS V14.01,2013-01-05 04:39:00,
2013-01-04 23:44:00,31.1,22.1,29.94,NW,309,5.3,13.9,69,0.00,,---,0.00,VWS V14.01,2013-01-05 04:44:00,
2013-01-04 23:49:00,31.2,22.7,29.94,NW,319,5.8,5.9,70,0.00,,---,0.00,VWS V14.01,2013-01-05 04:49:00,
2013-01-04 23:54:00,30.9,22.4,29.94,NW,304,0.0,0.0,70,0.00,,---,0.00,VWS V14.01,2013-01-05 04:54:00,